Overview Statistics Trail Chart Weather Telemetry Raw packets
 

This is the latest recevied weather packets stored in our database for station/object OM4MO-10. If no packets are shown the sender has not sent any weather packets the latest 10 day(s).

<< 4 5 6 7 8 9 10 >>
Time Temp. Humidity Pressure Rain* Wind** Luminosity Snow
1788532108 26.67° C 80% 1020.3 hPa - - - -
1788531208 27.22° C 80% 1021.4 hPa - - - -
1788530308 26.11° C 80% 1020 hPa - - - -
1788529408 25° C 80% 1020.1 hPa - - - -
1788528508 25° C 80% 1019.5 hPa - - - -
1788527607 25.56° C 80% 1019.7 hPa - - - -
1788526707 26.67° C 80% 1018.3 hPa - - - -
1788525807 25.56° C 80% 1020.2 hPa - - - -
1788524907 25.56° C 80% 1017.1 hPa - - - -
1788524007 25° C 80% 1019.9 hPa - - - -
1788523107 25° C 80% 1020.4 hPa - - - -
1788522207 26.11° C 80% 1021.1 hPa - - - -
1788521306 24.44° C 80% 1020 hPa - - - -
1788520406 24.44° C 80% 1021.4 hPa - - - -
1788519505 25° C 80% 1020.6 hPa - - - -
1788518605 25° C 80% 1021.7 hPa - - - -
1788517705 23.89° C 80% 1020.9 hPa - - - -
1788516805 24.44° C 80% 1021.2 hPa - - - -
1788515905 23.89° C 80% 1021.5 hPa - - - -
1788515004 23.89° C 80% 1020.5 hPa - - - -
1788514104 23.33° C 80% 1021.5 hPa - - - -
1788513204 22.78° C 79% 1021.9 hPa - - - -
1788512304 22.22° C 79% 1021.9 hPa - - - -
1788511404 21.11° C 79% 1021.8 hPa - - - -
1788510504 20.56° C 79% 1021.8 hPa - - - -

* Rain since midnight (hover to see other rain measurements)
** Current wind speed in m/s (hover to see current wind gust speed)